[[{"header":{"parameterUnit":"m.s-1","parameterCategory":1,"la1":30.2991,"la2":30.254,"lo1":-89.0895,"lo2":-89.0444,"dy":0.0017,"dx":0.0017,"nx":28,"ny":28,"refTime":"2025-04-17T21:00:00:Z","depth":0,"parameterNumber":2,"parameterNumberName":"U-component_of_WINDS"},"data":[0,0,0,0,0,0,0,0,0,0,0,0,0,0,0,0,0,0,0,0,0,0,0,0,0,0,0,0,0,0,0,0,0,0,0,0,0,0,0,0,0,0,0,0,0,0,0,0,0,0,0,0,0,0,0,0,0,0,-1.8685,-1.8687,0,-1.8807,-1.8809,-1.881,-1.885,-1.8849,-1.8848,-1.8848,-1.8975,-1.8979,-1.8983,0,0,0,0,0,0,0,0,0,0,0,0,0,-1.8489,-1.8492,-1.8685,-1.8687,-1.8688,-1.8807,-1.8809,-1.8811,-1.885,-1.8849,-1.8848,-1.8848,-1.8974,-1.8978,-1.8983,0,0,0,0,0,0,0,0,0,0,0,0,0,-1.8589,-1.8493,-1.8685,-1.8722,-1.8727,-1.8807,-1.8809,-1.8811,-1.885,-1.8849,-1.8848,-1.8847,-1.8972,-1.8978,-1.8984,-1.9037,0,0,-1.9001,-1.9004,0,0,0,0,0,0,0,0,-1.8583,-1.8596,-1.8715,-1.872,-1.8725,-1.8812,-1.8786,-1.8887,-1.885,-1.8803,-1.8848,-1.8847,-1.8922,-1.8932,-1.8956,-1.9042,-1.9048,-1.9002,-1.9006,-1.9008,-1.901,0,0,0,0,0,0,0,-1.8576,-1.8591,-1.8734,-1.8717,-1.8723,-1.8734,-1.8747,-1.8806,-1.8866,-1.8807,-1.881,-1.8824,-1.8924,-1.8951,-1.896,-1.905,-1.9002,-1.9007,-1.9011,-1.9013,-1.9187,-1.9188,0,0,0,0,0,0,-1.8563,-1.8585,-1.873,-1.8737,-1.865,-1.8738,-1.8753,-1.8785,-1.8865,-1.8876,-1.8825,-1.8825,-1.8941,-1.8953,-1.8964,-1.9032,-1.9008,-1.9014,-1.9017,-1.9186,-1.9187,-1.9188,0,0,0,0,0,0,-1.8558,-1.8575,-1.8725,-1.8662,-1.8682,-1.8742,-1.8778,-1.8788,-1.8815,-1.8878,-1.8889,-1.884,-1.8941,-1.8956,-1.9018,-1.9037,-1.9016,-1.9021,-1.9184,-1.9186,-1.9188,-1.9167,0,0,0,0,0,0,-1.8552,-1.8573,-1.8593,-1.8662,-1.8685,-1.8776,-1.8779,-1.8791,-1.8824,-1.8826,-1.8896,-1.8907,-1.8941,-1.9009,-1.9024,-1.9045,-1.9026,-1.9183,-1.9185,-1.9187,-1.9167,-1.9168,-1.9169,0,0,0,0,0,-1.8545,-1.8583,-1.8594,-1.8611,-1.8711,-1.8777,-1.879,-1.8828,-1.8826,-1.8847,-1.8888,-1.8905,-1.9033,-1.9015,-1.9032,-1.9055,-1.9182,-1.9184,-1.9187,-1.9166,-1.9168,-1.9169,0,0,0,0,0,0,-1.8515,-1.8593,-1.8606,-1.8667,-1.8715,-1.8783,-1.8811,-1.8829,-1.888,-1.888,-1.8926,-1.8941,-1.9,-1.9034,-1.9014,-1.9111,-1.9108,-1.9114,-1.9086,-1.9089,-1.909,-1.908,-1.9031,0,0,0,0,0,-1.8515,-1.8561,-1.8627,-1.8675,-1.8698,-1.875,-1.878,-1.8806,-1.8858,-1.8879,-1.8924,-1.8975,-1.9027,-1.906,-1.9111,-1.9172,-1.9188,-1.9196,-1.9197,-1.9198,-1.9203,-1.9238,-1.9243,-1.9196,-1.9196,-1.9196,0,0,-1.8517,-1.8565,-1.8591,-1.867,-1.871,-1.8758,-1.8767,-1.8817,-1.8853,-1.8886,-1.8948,-1.8983,-1.9043,-1.9105,-1.9135,-1.9135,-1.9219,-1.9201,-1.9201,-1.9206,-1.9241,-1.9246,-1.9249,-1.9198,-1.9198,-1.9197,0,0,-1.8543,-1.8584,-1.8628,-1.8669,-1.8729,-1.8764,-1.8775,-1.8841,-1.8866,-1.8928,-1.8954,-1.8998,-1.9086,-1.9128,-1.916,-1.9204,-1.9222,-1.922,-1.9226,-1.9261,-1.9264,-1.9268,-1.9284,-1.9289,-1.9224,-1.9224,-1.9224,0,-1.8538,-1.8609,-1.8649,-1.8698,-1.8732,-1.8764,-1.881,-1.8847,-1.8922,-1.8945,-1.8945,-1.9056,-1.9098,-1.9171,-1.9182,-1.9207,-1.9221,-1.9211,-1.926,-1.9264,-1.9268,-1.9284,-1.929,-1.9223,-1.9223,-1.9223,-1.9223,0,-1.8599,-1.8649,-1.8677,-1.8748,-1.8786,-1.8832,-1.888,-1.8914,-1.8937,-1.8972,-1.9035,-1.9087,-1.915,-1.9169,-1.9192,-1.9245,-1.9244,-1.9251,-1.9249,-1.9271,-1.9287,-1.9293,-1.9222,-1.9223,-1.9223,-1.9223,0,0,-1.861,-1.8702,-1.8712,-1.8744,-1.8814,-1.8854,-1.8903,-1.8963,-1.8991,-1.9042,-1.9085,-1.9159,-1.9167,-1.9204,-1.9232,-1.9262,-1.9293,-1.9266,-1.9268,-1.9269,-1.9356,-1.935,-1.9356,-1.9306,-1.9307,-1.9308,-1.9351,0,-1.8645,-1.8733,-1.877,-1.8841,-1.8888,-1.892,-1.8963,-1.9011,-1.9045,-1.9091,-1.9129,-1.9181,-1.9187,-1.921,-1.9241,-1.9283,-1.9311,-1.928,-1.9346,-1.9348,-1.933,-1.9364,-1.9358,-1.9395,-1.9357,-1.9358,-1.9359,0,-1.8698,-1.8749,-1.8824,-1.8888,-1.8909,-1.8947,-1.9006,-1.9049,-1.9105,-1.9128,-1.9169,-1.9196,-1.925,-1.9245,-1.932,-1.9298,-1.9327,-1.9352,-1.9355,-1.9362,-1.9355,-1.9372,-1.9409,-1.9414,-1.9369,-1.9368,-1.9368,0,-1.8698,-1.8785,-1.8841,-1.8868,-1.8945,-1.8971,-1.9005,-1.9059,-1.9094,-1.9146,-1.9169,-1.9226,-1.9258,-1.9303,-1.9345,-1.9337,-1.9416,-1.9414,-1.9437,-1.9436,-1.9452,-1.945,-1.9493,-1.9471,-1.9471,-1.9471,-1.9471,0,-1.8734,-1.8779,-1.8842,-1.8877,-1.8928,-1.8972,-1.9022,-1.9058,-1.9107,-1.915,-1.9181,-1.9221,-1.9274,-1.9321,-1.9355,-1.9412,-1.9426,-1.9447,-1.9455,-1.9444,-1.9441,-1.9464,-1.9462,-1.9473,-1.9472,-1.9472,-1.9472,0,-1.8743,-1.8787,-1.885,-1.8918,-1.8936,-1.8971,-1.903,-1.9065,-1.9101,-1.9155,-1.9171,-1.9228,-1.9285,-1.9331,-1.9406,-1.9428,-1.9488,-1.9498,-1.9469,-1.9473,-1.9494,-1.9491,-1.9552,-1.9563,-1.9533,-1.9534,-1.9534,0,-1.8763,-1.8798,-1.8869,-1.8899,-1.8932,-1.8981,-1.9016,-1.9061,-1.9097,-1.9163,-1.9191,-1.925,-1.9299,-1.9389,-1.9438,-1.9495,-1.9506,-1.9524,-1.9515,-1.9503,-1.9507,-1.9504,-1.9508,-1.9525,-1.9525,-1.9525,-1.9525,0,-1.8793,-1.8813,-1.8862,-1.8919,-1.8959,-1.9006,-1.9054,-1.9078,-1.9132,-1.917,-1.9228,-1.9266,-1.9343,-1.9401,-1.9464,-1.95,-1.9522,-1.9527,-1.9536,-1.9524,-1.9506,-1.9516,-1.9471,-1.9526,-1.9525,-1.9525,-1.9525,-1.9525,-1.8808,-1.8841,-1.8896,-1.895,-1.899,-1.9034,-1.9071,-1.9112,-1.9161,-1.9225,-1.9249,-1.9309,-1.9365,-1.9452,-1.9488,-1.9536,-1.9538,-1.955,-1.9553,-1.9556,-1.9554,-1.9499,-1.9548,-1.9548,-1.9548,-1.9548,-1.9548,0,-1.8841,-1.8878,-1.8926,-1.8992,-1.9034,-1.905,-1.9105,-1.9139,-1.9191,-1.9241,-1.9289,-1.9356,-1.9413,-1.9467,-1.9527,-1.9555,-1.9567,-1.9569,-1.9568,-1.9576,-1.9549,-1.9535,-1.9559,-1.9559,-1.9559,-1.9559,-1.9559,-1.9559,-1.8863,-1.8919,-1.8946,-1.9023,-1.906,-1.9118,-1.9148,-1.9189,-1.9229,-1.9303,-1.935,-1.9384,-1.9436,-1.95,-1.9553,-1.9568,-1.9588,-1.9588,-1.9605,-1.9579,-1.9577,-1.9576,-1.9563,-1.9592,-1.9592,-1.9628,-1.9628,-1.9629]},{"header":{"parameterUnit":"m.s-1","parameterCategory":1,"la1":30.2991,"la2":30.254,"lo1":-89.0895,"lo2":-89.0444,"dy":0.0017,"dx":0.0017,"nx":28,"ny":28,"refTime":"2025-04-17T21:00:00:Z","depth":0,"parameterNumber":3,"parameterNumberName":"V-component_of_WINDS"},"data":[0,0,0,0,0,0,0,0,0,0,0,0,0,0,0,0,0,0,0,0,0,0,0,0,0,0,0,0,0,0,0,0,0,0,0,0,0,0,0,0,0,0,0,0,0,0,0,0,0,0,0,0,0,0,0,0,0,0,6.3594,6.3595,0,6.3665,6.3666,6.3667,6.3598,6.3596,6.3593,6.359,6.3658,6.3662,6.3666,0,0,0,0,0,0,0,0,0,0,0,0,0,6.3391,6.3395,6.3594,6.3595,6.3596,6.3665,6.3666,6.3667,6.3599,6.3595,6.3592,6.3589,6.3656,6.3661,6.3666,0,0,0,0,0,0,0,0,0,0,0,0,0,6.3472,6.3397,6.3594,6.357,6.3569,6.3665,6.3666,6.3667,6.3599,6.3595,6.3591,6.3587,6.3654,6.3661,6.3667,6.3789,0,0,6.3687,6.369,0,0,0,0,0,0,0,0,6.3468,6.348,6.3573,6.3572,6.357,6.3619,6.3619,6.3708,6.36,6.3588,6.359,6.3585,6.3648,6.3654,6.3677,6.3792,6.3795,6.3687,6.3691,6.3694,6.3696,0,0,0,0,0,0,0,6.3462,6.3476,6.3622,6.3574,6.3573,6.3554,6.3561,6.3636,6.3639,6.3588,6.3584,6.3593,6.3646,6.367,6.3678,6.3796,6.3687,6.3693,6.3697,6.37,6.4012,6.4016,0,0,0,0,0,0,6.346,6.3472,6.362,6.3624,6.3508,6.3561,6.3568,6.3607,6.3638,6.3639,6.3597,6.359,6.3661,6.367,6.368,6.3822,6.3694,6.37,6.3704,6.4007,6.4013,6.4018,0,0,0,0,0,0,6.3456,6.3474,6.3617,6.3547,6.3564,6.3568,6.3613,6.3611,6.3635,6.3645,6.3644,6.3621,6.3659,6.3671,6.3762,6.3824,6.3703,6.3709,6.4002,6.4009,6.4015,6.411,0,0,0,0,0,0,6.3451,6.3473,6.3521,6.3549,6.3568,6.37,6.3617,6.3615,6.3647,6.3639,6.3668,6.3669,6.3656,6.3753,6.3768,6.383,6.3714,6.3997,6.4005,6.4013,6.4101,6.4119,6.4134,0,0,0,0,0,6.3444,6.3544,6.3524,6.3542,6.3628,6.3704,6.3714,6.37,6.3653,6.3699,6.3705,6.3668,6.3815,6.3763,6.378,6.3845,6.3993,6.4003,6.4012,6.4093,6.4115,6.4133,0,0,0,0,0,0,6.3521,6.3547,6.3525,6.3638,6.3669,6.3692,6.3751,6.3724,6.3768,6.3758,6.3736,6.3743,6.384,6.3851,6.3793,6.3963,6.3896,6.391,6.3951,6.3972,6.3988,6.3982,6.372,0,0,0,0,0,6.3552,6.3613,6.3632,6.3729,6.3746,6.3746,6.3779,6.3765,6.3796,6.3808,6.3821,6.3851,6.3904,6.3939,6.3988,6.4103,6.4107,6.4156,6.4172,6.4186,6.4197,6.4256,6.4278,6.405,6.405,6.405,0,0,6.3614,6.3636,6.3676,6.3745,6.3768,6.383,6.3758,6.3827,6.3871,6.3818,6.3905,6.3916,6.3947,6.4051,6.4097,6.4063,6.4261,6.4198,6.4209,6.4213,6.4269,6.429,6.4309,6.4057,6.4056,6.4055,0,0,6.376,6.3784,6.3867,6.3892,6.3928,6.3928,6.3948,6.3975,6.398,6.4068,6.4029,6.4081,6.4173,6.4197,6.4221,6.4376,6.4341,6.4392,6.4477,6.4535,6.4553,6.4569,6.4622,6.4641,6.4404,6.4404,6.4404,0,6.3833,6.3927,6.3913,6.3984,6.4015,6.3972,6.4054,6.4078,6.4128,6.4148,6.4111,6.4225,6.4243,6.4351,6.4388,6.441,6.443,6.4388,6.4552,6.4568,6.4582,6.4632,6.4652,6.441,6.4409,6.4409,6.4408,0,6.4014,6.4079,6.4141,6.4192,6.423,6.4307,6.4301,6.4341,6.4324,6.4327,6.4415,6.4436,6.4488,6.4513,6.4496,6.4617,6.4595,6.4556,6.4487,6.461,6.4656,6.4676,6.4418,6.4416,6.4414,6.4413,0,0,6.4209,6.4252,6.4274,6.4296,6.4333,6.4382,6.4456,6.4509,6.4542,6.4578,6.4637,6.4716,6.468,6.4707,6.4693,6.4744,6.4863,6.4698,6.4698,6.4726,6.4995,6.5023,6.5046,6.4842,6.4845,6.4848,6.4991,0,6.4354,6.4485,6.4474,6.4596,6.4655,6.4614,6.4678,6.4706,6.4711,6.476,6.4763,6.4819,6.4768,6.4784,6.4833,6.4838,6.4916,6.4828,6.4894,6.4896,6.4885,6.507,6.51,6.5234,6.501,6.5013,6.5015,0,6.4541,6.4585,6.4714,6.4741,6.4765,6.4823,6.4869,6.4918,6.4948,6.4947,6.4979,6.4955,6.5027,6.4959,6.5056,6.4996,6.5023,6.5029,6.5034,6.5038,6.4962,6.5077,6.5277,6.5296,6.5044,6.5042,6.504,0,6.4668,6.4759,6.4848,6.4868,6.4902,6.4944,6.4959,6.4986,6.5018,6.5058,6.5078,6.5126,6.5151,6.5188,6.5177,6.5129,6.5276,6.5207,6.5275,6.5275,6.5305,6.5303,6.5511,6.5327,6.5326,6.5326,6.5326,0,6.483,6.491,6.4905,6.4959,6.5046,6.5032,6.5118,6.5128,6.5153,6.5206,6.5174,6.5225,6.5209,6.5258,6.525,6.533,6.5343,6.5342,6.5339,6.5344,6.5344,6.5359,6.5349,6.5331,6.533,6.5329,6.5328,0,6.4986,6.4987,6.508,6.5105,6.5113,6.5176,6.5196,6.5246,6.5248,6.5316,6.5331,6.5334,6.539,6.5384,6.5446,6.544,6.554,6.5526,6.553,6.5526,6.5593,6.5586,6.5816,6.5844,6.5644,6.5646,6.5647,0,6.5089,6.5149,6.5181,6.5216,6.5235,6.5291,6.5323,6.5311,6.5346,6.5385,6.543,6.5483,6.5525,6.5616,6.5622,6.567,6.5655,6.5733,6.5662,6.5665,6.5654,6.5649,6.5654,6.5746,6.5748,6.575,6.5751,0,6.527,6.5267,6.5316,6.5366,6.5407,6.5445,6.5479,6.5508,6.5499,6.554,6.5598,6.5631,6.5695,6.5747,6.5792,6.5805,6.5776,6.5774,6.5792,6.5796,6.5795,6.5795,6.5565,6.5768,6.5767,6.5765,6.5764,6.5764,6.54,6.5452,6.5482,6.5538,6.5563,6.5596,6.5643,6.5652,6.5701,6.5753,6.5742,6.5807,6.5834,6.5891,6.591,6.5958,6.593,6.5956,6.5962,6.5968,6.5975,6.579,6.5966,6.5966,6.5966,6.5965,6.5965,0,6.5578,6.5596,6.5647,6.5697,6.574,6.5712,6.5748,6.5785,6.5843,6.5872,6.5915,6.598,6.6031,6.6042,6.609,6.6126,6.6114,6.6139,6.6135,6.6138,6.5999,6.5978,6.6148,6.6148,6.6148,6.6148,6.6148,6.6148,6.5675,6.576,6.5761,6.5856,6.5873,6.5937,6.596,6.5989,6.6012,6.6087,6.613,6.6137,6.6158,6.6207,6.6252,6.6253,6.6271,6.6301,6.6298,6.6167,6.6148,6.6131,6.6111,6.6306,6.6306,6.6432,6.6434,6.6434]}]]